Regional Weather Roundup
Issued by NWS Northern Indiana

Home | Current Version | Previous Version | Text Only | Print | Product List | Glossary Off
Versions: 1 2 3 4 5 6 7 8 9 10 11 12 13 14 15 16 17 18 19 20 21 22 23 24 25 26 27 28 29 30 31 32 33 34 35 36 37 38 39 40 41 42 43 44 45 46 47 48 49 50

000
ASUS43 KIWX 170510
RWRIWX

KIWX WEATHER ROUNDUP
NATIONAL WEATHER SERVICE NORTHERN INDIANA
1200 AM EST TUE JAN 17 2017

NOTE: "FAIR" INDICATES FEW OR NO CLOUDS BELOW 12,000 FEET WITH NO
SIGNIFICANT WEATHER AND/OR OBSTRUCTIONS TO VISIBILITY.

* THESE STATIONS ARE NOT UNDER NWS QUALITY CONTROL. THEY ALSO MAY NOT
  REPORT WEATHER SUCH AS PRECIPITATION OR FOG.

INZ001>027-170600-
NORTHERN INDIANA

CITY           SKY/WX    TMP DP  RH WIND       PRES   REMARKS
GARY*          LGT RAIN  44  44  99 SE9       29.87F
VALPARAISO     FOG       39  39 100 E8        29.89F VSB 1/4
LAPORTE*       RAIN      37  37 100 E8        29.91F
KNOX*          CLOUDY    43  37  81 SE12      29.90F
SOUTH BEND     LGT RAIN  37  37 100 E10       29.94F VSB 1
GOSHEN         RAIN      39  36  89 SE12      29.93F FOG
ROCHESTER*     DRIZZLE   46  46 100 SE12      29.93F
WARSAW*        LGT RAIN  41  37  87 SE6       29.94F
FORT WAYNE     HVY RAIN  40  38  93 E12       29.98F VSB 1/2
PERU/GRISSOM   LGT RAIN  48  48 100 SE7       29.92F
MARION*        LGT RAIN  46  46 100 SE12      29.96F

$$
INZ028>050-170600-
CENTRAL INDIANA

CITY           SKY/WX    TMP DP  RH WIND       PRES   REMARKS
LAFAYETTE      LGT RAIN  51  51 100 S6        29.90F
KOKOMO*        LGT RAIN  48  48 100 S14       29.95F FOG
MUNCIE*        RAIN      52  50  93 S9        29.98F FOG
INDIANAPOLIS   LGT RAIN  51  50  96 NE3       29.97S FOG

$$
MIZ043>046-050>051-056>058-064>065-071>073-077>080-170600-
SOUTHWEST LOWER MICHIGAN

CITY           SKY/WX    TMP DP  RH WIND       PRES   REMARKS
BATTLE CREEK   LGT RAIN  35  35 100 E7        29.99F FOG     WCI  29
BENTON HARBOR  LGT RAIN  39  37  92 SE14G21   29.92F FOG
COLDWATER*     LGT RAIN  36  36 100 SE13      29.99F
HILLSDALE*     LGT RAIN  32  32 100 E10G16    30.00F VSB 3/4 WCI  24
HOLLAND        RAIN      35  33  92 E10       29.96F FOG     WCI  27
GRAND RAPIDS   LGT RAIN  33  32  96 E13       30.00F FOG     WCI  24
KALAMAZOO      LGT RAIN  36  34  92 SE6       29.98F FOG
STURGIS*       RAIN      36  36 100 E8        29.96F
THREE RIVERS*  LGT RAIN  36  36 100 E7        29.97F VSB 1

$$
OHZ001>008-015>018-024>025-170600-
NORTHWEST OHIO

CITY           SKY/WX    TMP DP  RH WIND       PRES   REMARKS
DEFIANCE       LGT RAIN  38  35  89 E7        30.02F FOG
FINDLAY        CLOUDY    43  40  89 SE12      30.03F FOG
TOLEDO EXPRESS LGT RAIN  34  34 100 E6        30.05F FOG     WCI  29
TOLEDO METCALF CLOUDY    35  35 100 E5        30.07F FOG     WCI  31
LIMA           CLOUDY    46  46 100 SE12      30.02F FOG

$$
AND FOR LAKE MICHIGAN COASTAL AND OPEN LAKE BUOY OBSERVATIONS

STATION/POSITION TEMP    WIND        PRES    VSBY  WAVE
                 AIR SEA DIR/SP/G                  HT/PER
                 (F)     (DEG/KT/KT) (MB)    (MI)  (FT/S)
CALUMET HARBOR    38      90/  5/  6 1010.9F
MICHIGAN CITY     42     110/ 14/ 18   N/A
BURNS HARBOR      44     140/ 13/ 18 1012.5F

$$
&&



USA.gov is the U.S. government's official web portal to all federal, state and local government web resources and services.